CZ-6A DEB

Satellite information

Favourite Embed

Satellite Type and Status

DEBRISIN ORBIT

Key statistics

Satellite CZ-6A DEB at a glance.

Uptime

1129

Days in orbit

Revolutions

≈ 14.6

Per day

Orbit

SSO

Sun Synchronous Orbit

Inclination

98.6

Latest

Satellite identification and parameters

Extended collection of information and parameters for CZ-6A DEB.

Object identification

Identified? True

Debris? True

Object name: CZ-6A DEB

International designator: 2022-151PH

Object number (NORAD): 54631

Object ID (CCSDS): 54631

Country: PEOPLES REPUBLIC OF CHINA (PRC)

Current information (Y/N): Y

RCS size: SMALL

Orbital parameters

Period: 98.513 minutes

Inclination: 98.6395 deg

SMA: 7065.734 km

Apoapsis: 745.355 km

Periapsis: 629.843 km

RAAN: 33.1132 deg

Eccentricy: 0.00817409

Argument of periapsis: 162.7775 deg

Mean anomaly: 197.6228 deg

Mean motion: 14.61728825 rev/day

Mean motion (dot): 0.00012875 rev/day2

B* drag term: 0.0024695977 1/REarth

Two-line elements (TLE)

Creation date: Dec. 14, 2025, 3:07 a.m.

Reference frame: TEME

Reference center: EARTH

Epoch: Dec. 13, 2025, 3:35 p.m. UTC

TLE line 0: 0 CZ-6A DEB

TLE line 1: 1 54631U 22151PH 25347.64972058 .00012875 00000-0 24696-2 0 9994

TLE line 2: 2 54631 98.6395 33.1132 0081741 162.7775 197.6228 14.61728825161636

Live tracking on map

Real-time ground track for satellite CZ-6A DEB.

In-orbit conjunctions

A list of the most updated potential collisions computed for object CZ-6A DEB.

Target Orbit TCA Probability of collision Miss distance Type
COSMOS 773 LEO 2025-01-16 12:02:40 0.0001012972 936.0 (m) PAYLOAD
SL-8 R/B LEO 2024-06-11 19:33:23 0.0001733571 522.0 (m) ROCKET BODY

Associated space launch

Chinese satellite reported for atmospheric/ocean/environmental/spatial parameter research purposes, details TBD.

CZ-6A DEB was lifted into orbit during the mission ‘Long March 6A | Yunhai 3’, on board a Long March 6A space rocket.

The launch took place on Nov. 11, 2022, 10:52 p.m. from Launch Complex 9A.

For more information about the launch, click the button.

Launch to space Long March 6A | Yunhai 3
Long March 6A | Yunhai 3

Agency: N/A

Status: Launch Successful

Launch date: Nov. 11, 2022, 10:52 p.m. UTC

Rocket: Long March 6A

Launch pad: Launch Complex 9A

Location: Taiyuan Satellite Launch Center, People's Republic of China

...

Latest news about this satellite

There are no fresh news available about this satellite. Check back as we update our databases every day.


Newsletter sign-up

Weekly statistics, charts and insights to help you stay on top of the space industry.